Weather History for Quakertown, PA

Change the Weather History Date:

Sunday, February 10, 2013

  Actual Average (KABE) Record (KABE)
Temperature  
Mean Temperature 24 °F 30 °F  
Max Temperature 37 °F 39 °F 57 °F (1990)
Min Temperature 10 °F 21 °F -11 °F (1934)
Degree Days  
Heating Degree Days 42 35  
Month to date heating degree days 360  
Since 1 July heating degree days 3710  
Cooling Degree Days 0 0  
Month to date cooling degree days 0  
Year to date cooling degree days 0  
Moisture  
Dew Point 10 °F    
Average Humidity 53    
Maximum Humidity 85    
Minimum Humidity 26    
Precipitation  
Precipitation 0.00 in 0.09 in 1.40 in (2010)
Month to date precipitation 0.98  
Year to date precipitation 4.01  
Snow  
Snow 0.00 in 0.40 in 17.30 in (2010)
Month to date snowfall 4.1  
Since 1 July snowfall 20.0  
Snow Depth -    
Sea Level Pressure  
Sea Level Pressure 30.38 in    
Wind  
Wind Speed - (North)    
Max Wind Speed -    
Max Gust Speed -    
Visibility 10 miles    
Events      
T = Trace of Precipitation, MM = Missing Value Source: NWS Daily Summary

Daily Weather History Graph

Daily Weather History Graph

Search for Another Location

Airport:

Trip Planner

Search our weather history database for the weather conditions in past years. The results will help you decide how hot, cold, wet, or windy it might be!

Date:

Astronomy

Feb. 10, 2013 Rise Set
Actual Time 7:00 AM EST 5:31 PM EST
Civil Twilight 6:32 AM EST 5:59 PM EST
Nautical Twilight 6:00 AM EST 6:31 PM EST
Astronomical Twilight 5:28 AM EST 7:03 PM EST
Moon 6:49 AM EST (2/10) 6:19 PM EST (2/10)
Length of Visible Light 11h 26m
Length of Day
10h 30m
New Moon, 0% of the Moon is Illuminated
Feb 10
New Moon
Feb 17
First Quarter
Feb 25
Full
Mar 4
Last Quarter
Mar 11
New

Hourly Weather History & Observations

Time (EST) Temp. Dew Point Humidity Pressure Visibility Wind Dir Wind Speed Gust Speed Precip Events Conditions
12:15 AM 19.4 °F 8.6 °F 63% 30.37 in 10.0 mi North - - N/A   Clear
12:35 AM 19.4 °F 8.6 °F 63% 30.37 in 10.0 mi North - - N/A   Clear
12:55 AM 19.4 °F 8.6 °F 63% 30.38 in 10.0 mi North - - N/A   Clear
1:15 AM 19.4 °F 8.6 °F 63% 30.38 in 10.0 mi North - - N/A   Clear
1:35 AM 17.6 °F 8.6 °F 68% 30.39 in 10.0 mi North - - N/A   Clear
1:55 AM 17.6 °F 8.6 °F 68% 30.39 in 10.0 mi North - - N/A   Clear
2:15 AM 17.6 °F 8.6 °F 68% 30.39 in 10.0 mi North - - N/A   Clear
2:35 AM 17.6 °F 8.6 °F 68% 30.39 in 10.0 mi North - - N/A   Clear
2:55 AM 17.6 °F 8.6 °F 68% 30.38 in 10.0 mi North - - N/A   Clear
3:15 AM 17.6 °F 8.6 °F 68% 30.39 in 10.0 mi North - - N/A   Clear
3:35 AM 17.6 °F 8.6 °F 68% 30.40 in 10.0 mi North - - N/A   Clear
3:55 AM 15.8 °F 8.6 °F 73% 30.39 in 10.0 mi North - - N/A   Clear
4:15 AM 15.8 °F 8.6 °F 73% 30.39 in 10.0 mi North - - N/A   Clear
4:35 AM 14.0 °F 8.6 °F 79% 30.39 in 10.0 mi North - - N/A   Clear
4:55 AM 12.2 °F 6.8 °F 79% 30.39 in 10.0 mi North - - N/A   Clear
5:15 AM 10.4 °F 6.8 °F 85% 30.40 in 10.0 mi North - - N/A   Clear
5:35 AM 14.0 °F 8.6 °F 79% 30.39 in 10.0 mi North - - N/A   Clear
5:55 AM 14.0 °F 8.6 °F 79% 30.40 in 10.0 mi North - - N/A   Clear
6:15 AM 14.0 °F 8.6 °F 79% 30.40 in 10.0 mi North - - N/A   Clear
6:35 AM 14.0 °F 8.6 °F 79% 30.40 in 10.0 mi North - - N/A   Clear
6:55 AM 15.8 °F 8.6 °F 73% 30.41 in 10.0 mi North - - N/A   Clear
7:15 AM 14.0 °F 8.6 °F 79% 30.42 in 10.0 mi North - - N/A   Clear
7:35 AM 15.8 °F 8.6 °F 73% 30.43 in 10.0 mi North - - N/A   Clear
7:55 AM 17.6 °F 8.6 °F 68% 30.44 in 10.0 mi North - - N/A   Clear
8:15 AM 17.6 °F 8.6 °F 68% 30.44 in 10.0 mi North - - N/A   Clear
8:35 AM 19.4 °F 8.6 °F 63% 30.45 in 10.0 mi North - - N/A   Clear
8:55 AM 21.2 °F 8.6 °F 58% 30.46 in 10.0 mi North - - N/A   Clear
9:15 AM 23.0 °F 8.6 °F 54% 30.47 in 10.0 mi North - - N/A   Clear
9:35 AM 23.0 °F 8.6 °F 54% 30.47 in 10.0 mi North - - N/A   Clear
9:55 AM 24.8 °F 8.6 °F 50% 30.46 in 10.0 mi North - - N/A   Clear
10:15 AM 26.6 °F 6.8 °F 43% 30.47 in 10.0 mi North - - N/A   Clear
10:35 AM 26.6 °F 6.8 °F 43% 30.47 in 10.0 mi North - - N/A   Clear
10:55 AM 28.4 °F 6.8 °F 40% 30.47 in 10.0 mi North - - N/A   Clear
11:15 AM 30.2 °F 6.8 °F 37% 30.46 in 10.0 mi North - - N/A   Clear
11:35 AM 30.2 °F 6.8 °F 37% 30.45 in 10.0 mi North - - N/A   Clear
11:55 AM 32.0 °F 6.8 °F 35% 30.42 in 10.0 mi North - - N/A   Clear
12:15 PM 32.0 °F 8.6 °F 38% 30.41 in 10.0 mi North - - N/A   Clear
12:35 PM 33.8 °F 8.6 °F 35% 30.40 in 10.0 mi North - - N/A   Clear
12:55 PM 35.6 °F 6.8 °F 30% 30.40 in 10.0 mi North - - N/A   Clear
1:15 PM 35.6 °F 6.8 °F 30% 30.39 in 10.0 mi North - - N/A   Clear
1:35 PM 37.4 °F 8.6 °F 30% 30.39 in 10.0 mi North - - N/A   Clear
1:55 PM 37.4 °F 12.2 °F 36% 30.38 in 10.0 mi North - - N/A   Clear
2:15 PM 37.4 °F 12.2 °F 36% 30.38 in 10.0 mi North - - N/A   Clear
2:35 PM 37.4 °F 10.4 °F 33% 30.37 in 10.0 mi North - - N/A   Clear
2:55 PM 37.4 °F 8.6 °F 30% 30.36 in 10.0 mi North - - N/A   Clear
3:15 PM 37.4 °F 6.8 °F 28% 30.37 in 10.0 mi North - - N/A   Clear
3:35 PM 37.4 °F 5.0 °F 26% 30.36 in 10.0 mi North - - N/A   Clear
3:55 PM 37.4 °F 6.8 °F 28% 30.35 in 10.0 mi North - - N/A   Clear
4:15 PM 37.4 °F 8.6 °F 30% 30.35 in 10.0 mi North - - N/A   Clear
4:35 PM 37.4 °F 8.6 °F 30% 30.35 in 10.0 mi North - - N/A   Clear
4:55 PM 37.4 °F 8.6 °F 30% 30.34 in 10.0 mi North - - N/A   Clear
5:15 PM 35.6 °F 10.4 °F 35% 30.34 in 10.0 mi North - - N/A   Clear
5:35 PM 33.8 °F 14.0 °F 44% 30.35 in 10.0 mi North - - N/A   Clear
5:55 PM 32.0 °F 15.8 °F 51% 30.35 in 10.0 mi North - - N/A   Clear
6:15 PM 32.0 °F 14.0 °F 48% 30.35 in 10.0 mi North - - N/A   Clear
6:35 PM 33.8 °F 12.2 °F 41% 30.36 in 10.0 mi North - - N/A   Clear
6:55 PM 32.0 °F 10.4 °F 41% 30.34 in 10.0 mi North - - N/A   Clear
7:15 PM 32.0 °F 12.2 °F 44% 30.33 in 10.0 mi North - - N/A   Partly Cloudy
7:35 PM 32.0 °F 15.8 °F 51% 30.33 in 10.0 mi North - - N/A   Partly Cloudy
7:55 PM 32.0 °F 14.0 °F 48% 30.34 in 10.0 mi North - - N/A   Partly Cloudy
8:15 PM 32.0 °F 15.8 °F 51% 30.34 in 10.0 mi North - - N/A   Clear
8:35 PM 33.8 °F 15.8 °F 48% 30.33 in 10.0 mi North - - N/A   Clear
8:55 PM 33.8 °F 15.8 °F 48% 30.33 in 10.0 mi North - - N/A   Clear
9:15 PM 32.0 °F 15.8 °F 51% 30.33 in 10.0 mi North - - N/A   Clear
9:35 PM 32.0 °F 15.8 °F 51% 30.32 in 10.0 mi North - - N/A   Clear
9:55 PM 32.0 °F 15.8 °F 51% 30.31 in 10.0 mi North - - N/A   Clear
10:15 PM 32.0 °F 15.8 °F 51% 30.30 in 10.0 mi North - - N/A   Clear
10:35 PM 32.0 °F 15.8 °F 51% 30.29 in 10.0 mi North - - N/A   Clear
10:55 PM 32.0 °F 15.8 °F 51% 30.29 in 10.0 mi North - - N/A   Clear
11:15 PM 32.0 °F 15.8 °F 51% 30.30 in 10.0 mi North - - N/A   Clear
11:35 PM 32.0 °F 17.6 °F 55% 30.30 in 10.0 mi North - - N/A   Clear
11:55 PM 32.0 °F 17.6 °F 55% 30.29 in 10.0 mi North - - N/A   Clear